Location: Waco, TX
(31.5480°N, 97.1670°W)
Time: 00:51:44
(UTC-06:00)

ISS - Pass Details

Date: 16 January 2018
Orbit: 402 x 407 km, 51.6° (Epoch: 21 January)

Event Time Altitude Azimuth Distance (km) Brightness Sun altitude
Rises 05:14:29 0° 331° (NNW) 2,322 - -28.2°
Reaches altitude 10° 05:17:08 10° 354° (N) 1,461 - -27.6°
Maximum altitude 05:19:16 16° 35° (NE) 1,147 - -27.1°
Exits shadow 05:20:07 15° 54° (NE) 1,202 -1.0 -27.0°
Drops below altitude 10° 05:21:24 10° 76° (ENE) 1,459 -0.2 -26.7°
Sets 05:24:03 0° 99° (E) 2,317 1.4 -26.1°
